Home   Weather   Stillwater   Past weeks
Flag for USA

Past Weather in Stillwater, Minnesota, USA — Yesterday and Last 2 Weeks

Now
44 °F

Clear.


Feels Like: 44 °F
Forecast: 63 / 37 °F
Wind: No wind

Location: St. Paul Downtown Holman Field

Current Time: Oct 20, 2019 at 1:03:50 am

Latest Report: Oct 19, 2019 at 11:53 pm


Visibility: 10 mi

Pressure: 29.76 "Hg

Humidity: 85%

Dew Point: 40 °F

Location of StillwaterLocation

Past Weather in Stillwater — Graph

°F

Stillwater Temperature Yesterday

Maximum temperature yesterday: 65 °F (at 3:53 pm)
Minimum temperature yesterday: 44 °F (at 11:53 pm)
Average temperature yesterday: 54 °F

High & Low Weather Summary for the Past Weeks

 TemperatureHumidityPressure
High72 °F (Oct 9, 1:53 pm)97% (Oct 5, 4:10 pm)30.21 "Hg (Oct 5, 4:10 pm)
Low33 °F (Oct 12, 7:53 am)33% (Oct 19, 4:53 pm)29.54 "Hg (Oct 18, 4:53 pm)
Average48 °F73%29.87 "Hg
* Reported Oct 4 11:53 pm — Oct 19 11:53 pm, Stillwater. Weather by CustomWeather, © 2019

Note: Actual official high and low records may vary slightly from our data, if they occured in-between our weather recording intervals... More about our weather records

Advertising

Stillwater Weather History for the Previous 24 Hours

Scroll right to see more
 ConditionsComfort  
Time TempWeatherWind HumidityBarometerVisibility
11:53 pm
Sat, Oct 19
44 °FClear.No wind85%29.76 "Hg10 mi
10:53 pm45 °FClear.No wind80%29.75 "Hg10 mi
9:53 pm47 °FClear.No wind77%29.74 "Hg10 mi
8:53 pm49 °FClear.No wind71%29.72 "Hg10 mi
7:53 pm50 °FClear.No wind74%29.71 "Hg10 mi
6:53 pm52 °FClear.No wind61%29.68 "Hg10 mi
5:53 pm62 °FSunny.7 mph37%29.66 "Hg10 mi
4:53 pm65 °FSunny.10 mph33%29.65 "Hg10 mi
3:53 pm65 °FSunny.8 mph45%29.65 "Hg10 mi
2:53 pm63 °FSunny.7 mph50%29.66 "Hg10 mi
1:53 pm61 °FSunny.8 mph56%29.67 "Hg10 mi
12:53 pm57 °FSunny.7 mph67%29.69 "Hg10 mi
11:53 am53 °FSunny.7 mph74%29.70 "Hg10 mi
10:53 am51 °FOvercast.3 mph86%29.70 "Hg10 mi
9:53 am50 °FLight rain. Mostly cloudy.7 mph89%29.69 "Hg10 mi
8:53 am50 °FLight rain. Fog.3 mph86%29.70 "Hg5 mi
7:53 am51 °FMore clouds than sun.6 mph83%29.63 "Hg10 mi
6:53 am52 °FOvercast.6 mph77%29.62 "Hg10 mi
5:53 am53 °FPassing clouds.3 mph74%29.65 "Hg10 mi
4:53 am53 °FClear.No wind72%29.61 "Hg10 mi
3:53 am54 °FClear.8 mph69%29.60 "Hg10 mi
2:53 am55 °FClear.13 mph67%29.60 "Hg10 mi
1:53 am55 °FClear.15 mph67%29.59 "Hg10 mi
Weather by CustomWeather, © 2019

See weather overview